AAL1771 KDFW-KLAS

Flight info

Callsign AAL1771
Flight time N/A
Altitude 34000
Route HRPER3 HULZE DCT TXO/N0453F360 J72 GUP DCT HAHAA RKSTR4
Aircraft A321/M-SDE3FGHIRWY/LB1

Departure

Time 2026-05-08 01:56
Airport Dallas Fort Worth International Airport (KDFW)

Arrival

Time N/A
Airport Harry Reid International Airport (KLAS)
Time Latitude Longitude Altitude Speed Heading
2026-05-08 01:25 32.90257 -97.03578 587 ft 0 kts 310°
2026-05-08 01:40 32.90241 -97.03556 587 ft 4 kts 317°
2026-05-08 01:40 32.90219 -97.03538 587 ft 4 kts 343°
2026-05-08 01:40 32.90206 -97.03534 587 ft 0 kts 358°
2026-05-08 01:46 32.90208 -97.03534 587 ft 1 kts 360°
2026-05-08 01:46 32.90223 -97.03522 587 ft 5 kts 40°
2026-05-08 01:46 32.90262 -97.03489 587 ft 8 kts 25°
2026-05-08 01:46 32.90315 -97.03457 587 ft 7 kts 36°
2026-05-08 01:47 32.90331 -97.03406 586 ft 4 kts 88°
2026-05-08 01:47 32.90331 -97.03395 586 ft 0 kts 92°
2026-05-08 01:47 32.90331 -97.03394 586 ft 1 kts 92°
2026-05-08 01:48 32.90390 -97.03308 584 ft 12 kts 356°
2026-05-08 01:48 32.90481 -97.03311 585 ft 15 kts 359°
2026-05-08 01:48 32.90600 -97.03310 585 ft 17 kts
2026-05-08 01:48 32.90720 -97.03308 585 ft 18 kts 359°
2026-05-08 01:49 32.90832 -97.03309 586 ft 15 kts
2026-05-08 01:49 32.90901 -97.03357 586 ft 12 kts 275°
2026-05-08 01:49 32.90903 -97.03464 586 ft 14 kts 271°
2026-05-08 01:49 32.90904 -97.03596 587 ft 18 kts 269°
2026-05-08 01:50 32.90905 -97.03731 598 ft 13 kts 270°
2026-05-08 01:50 32.90905 -97.03831 606 ft 12 kts 270°
2026-05-08 01:50 32.90906 -97.03944 609 ft 16 kts 270°
2026-05-08 01:50 32.90906 -97.04084 609 ft 17 kts 270°
2026-05-08 01:51 32.90907 -97.04229 610 ft 17 kts 270°
2026-05-08 01:51 32.90907 -97.04384 604 ft 21 kts 270°
2026-05-08 01:51 32.90908 -97.04542 597 ft 20 kts 270°
2026-05-08 01:51 32.90907 -97.04680 600 ft 15 kts 269°
2026-05-08 01:52 32.90908 -97.04786 611 ft 10 kts 271°
2026-05-08 01:52 32.90910 -97.04858 606 ft 8 kts 279°
2026-05-08 01:52 32.90954 -97.04884 618 ft 9 kts
2026-05-08 01:52 32.91031 -97.04881 615 ft 14 kts
2026-05-08 01:53 32.91151 -97.04880 619 ft 21 kts
2026-05-08 01:53 32.91298 -97.04878 614 ft 19 kts
2026-05-08 01:53 32.91395 -97.04881 621 ft 9 kts 344°
2026-05-08 01:53 32.91421 -97.04939 618 ft 8 kts 271°
2026-05-08 01:54 32.91419 -97.05005 619 ft 8 kts 268°
2026-05-08 01:54 32.91416 -97.05070 624 ft 6 kts 252°
2026-05-08 01:54 32.91403 -97.05075 614 ft 2 kts 179°
2026-05-08 01:54 32.91400 -97.05075 624 ft 0 kts 179°
2026-05-08 01:55 32.91383 -97.05075 616 ft 8 kts 180°
2026-05-08 01:55 32.91150 -97.05074 620 ft 68 kts 180°
2026-05-08 01:55 32.90443 -97.05079 598 ft 132 kts 180°
2026-05-08 01:55 32.89355 -97.05085 623 ft 176 kts 180°
2026-05-08 01:56 32.88136 -97.05075 1263 ft 172 kts 179°
2026-05-08 01:56 32.86943 -97.05076 1954 ft 171 kts 186°
2026-05-08 01:56 32.85774 -97.05462 2447 ft 182 kts 197°
2026-05-08 01:56 32.84507 -97.05917 2669 ft 200 kts 194°
2026-05-08 01:57 32.83093 -97.06375 2853 ft 219 kts 194°
2026-05-08 01:57 32.81532 -97.06872 3025 ft 245 kts 193°
2026-05-08 01:57 32.79866 -97.07391 3691 ft 250 kts 194°
2026-05-08 01:57 32.78224 -97.08115 4377 ft 256 kts 214°
2026-05-08 01:58 32.77067 -97.09707 5043 ft 259 kts 245°
2026-05-08 01:58 32.76500 -97.11749 5792 ft 260 kts 257°
2026-05-08 01:58 32.76216 -97.13863 6583 ft 260 kts 265°
2026-05-08 01:58 32.76424 -97.16032 7149 ft 269 kts 278°
2026-05-08 01:59 32.76723 -97.18233 7809 ft 271 kts 275°
2026-05-08 01:59 32.76934 -97.20462 8522 ft 272 kts 273°
2026-05-08 01:59 32.77097 -97.22703 9244 ft 273 kts 272°
2026-05-08 01:59 32.77369 -97.24944 9951 ft 276 kts 282°
2026-05-08 02:00 32.77895 -97.27170 10371 ft 289 kts 283°
2026-05-08 02:00 32.78464 -97.29561 10485 ft 311 kts 283°
2026-05-08 02:00 32.79072 -97.32102 10792 ft 324 kts 283°
2026-05-08 02:00 32.79700 -97.34703 11378 ft 328 kts 284°
2026-05-08 02:01 32.80333 -97.37319 12045 ft 330 kts 284°
2026-05-08 02:01 32.80967 -97.39943 12713 ft 331 kts 284°
2026-05-08 02:01 32.81606 -97.42584 13394 ft 333 kts 284°
2026-05-08 02:01 32.82247 -97.45242 14057 ft 334 kts 284°
2026-05-08 02:02 32.82887 -97.47902 14641 ft 336 kts 284°
2026-05-08 02:02 32.83532 -97.50582 15203 ft 338 kts 284°
2026-05-08 02:02 32.84179 -97.53280 15791 ft 340 kts 283°
2026-05-08 02:02 32.84828 -97.55995 16376 ft 343 kts 283°
2026-05-08 02:03 32.85427 -97.58505 16904 ft 345 kts 283°
2026-05-08 02:03 32.86084 -97.61263 17446 ft 348 kts 282°
2026-05-08 02:03 32.86744 -97.64041 17984 ft 350 kts 282°
2026-05-08 02:03 32.87408 -97.66840 18505 ft 353 kts 282°
2026-05-08 02:04 32.88076 -97.69656 18978 ft 355 kts 282°
2026-05-08 02:04 32.88748 -97.72488 19487 ft 356 kts 283°
2026-05-08 02:04 32.89581 -97.75279 19993 ft 360 kts 288°
2026-05-08 02:04 32.90498 -97.78063 20522 ft 361 kts 288°
2026-05-08 02:05 32.91413 -97.80842 21056 ft 362 kts 288°
2026-05-08 02:05 32.92335 -97.83641 21595 ft 363 kts 288°
2026-05-08 02:05 32.93258 -97.86445 22108 ft 364 kts 288°
2026-05-08 02:05 32.94186 -97.89267 22604 ft 366 kts 288°
2026-05-08 02:06 32.95113 -97.92095 23079 ft 367 kts 288°
2026-05-08 02:06 32.96042 -97.94935 23553 ft 369 kts 288°
2026-05-08 02:06 32.96973 -97.97786 23945 ft 370 kts 288°
2026-05-08 02:06 32.97910 -98.00656 24320 ft 372 kts 288°
2026-05-08 02:07 32.98845 -98.03525 24696 ft 373 kts 287°
2026-05-08 02:07 32.99786 -98.06415 25083 ft 374 kts 287°
2026-05-08 02:07 33.00725 -98.09305 25469 ft 374 kts 287°
2026-05-08 02:07 33.01665 -98.12201 25848 ft 375 kts 286°
2026-05-08 02:08 33.02597 -98.15073 26232 ft 376 kts 286°
2026-05-08 02:08 33.03543 -98.17988 26593 ft 377 kts 286°
2026-05-08 02:08 33.04490 -98.20901 26954 ft 378 kts 285°
2026-05-08 02:08 33.05440 -98.23822 27313 ft 379 kts 285°
2026-05-08 02:09 33.06394 -98.26755 27674 ft 380 kts 285°
2026-05-08 02:09 33.07350 -98.29693 28030 ft 380 kts 285°
2026-05-08 02:09 33.08306 -98.32635 28378 ft 381 kts 285°
2026-05-08 02:09 33.09276 -98.35622 28725 ft 382 kts 284°
2026-05-08 02:10 33.10226 -98.38544 29045 ft 383 kts 284°
2026-05-08 02:10 33.11201 -98.41555 29371 ft 384 kts 283°
2026-05-08 02:10 33.12161 -98.44526 29682 ft 385 kts 283°
2026-05-08 02:10 33.13117 -98.47480 30021 ft 386 kts 283°
2026-05-08 02:11 33.14099 -98.50512 30307 ft 387 kts 283°
2026-05-08 02:11 33.15070 -98.53515 30555 ft 389 kts 283°
2026-05-08 02:11 33.16042 -98.56523 30876 ft 388 kts 283°
2026-05-08 02:11 33.17014 -98.59528 31196 ft 388 kts 282°
2026-05-08 02:12 33.17989 -98.62533 31522 ft 388 kts 282°
2026-05-08 02:12 33.18961 -98.65536 31813 ft 388 kts 282°
2026-05-08 02:12 33.19930 -98.68544 32107 ft 388 kts 282°
2026-05-08 02:12 33.20895 -98.71546 32408 ft 388 kts 282°
2026-05-08 02:13 33.21860 -98.74557 32666 ft 389 kts 281°
2026-05-08 02:13 33.22828 -98.77577 32927 ft 390 kts 281°
2026-05-08 02:13 33.23796 -98.80599 33197 ft 390 kts 281°
2026-05-08 02:13 33.24766 -98.83630 33478 ft 390 kts 281°
2026-05-08 02:14 33.25734 -98.86652 33767 ft 390 kts 281°
2026-05-08 02:14 33.26704 -98.89689 33973 ft 391 kts 281°
2026-05-08 02:14 33.28624 -98.95696 34015 ft 384 kts 280°
2026-05-08 02:15 33.30519 -99.01658 34013 ft 383 kts 280°
2026-05-08 02:15 33.32096 -99.06651 34014 ft 383 kts 280°
2026-05-08 02:16 33.33982 -99.12612 34012 ft 383 kts 280°
2026-05-08 02:16 33.35871 -99.18570 34037 ft 383 kts 281°
2026-05-08 02:17 33.37763 -99.24529 34030 ft 382 kts 280°
2026-05-08 02:17 33.39638 -99.30475 34027 ft 382 kts 280°
2026-05-08 02:18 33.41513 -99.36421 34027 ft 382 kts 280°
2026-05-08 02:18 33.43375 -99.42369 34020 ft 381 kts 280°
2026-05-08 02:19 33.45232 -99.48316 34030 ft 381 kts 280°
2026-05-08 02:19 33.47063 -99.54264 34026 ft 379 kts 279°
2026-05-08 02:20 33.48738 -99.60234 34014 ft 378 kts 278°
2026-05-08 02:20 33.50367 -99.66218 34013 ft 377 kts 278°
2026-05-08 02:21 33.52006 -99.72193 34001 ft 377 kts 278°
2026-05-08 02:21 33.53666 -99.78161 34002 ft 378 kts 278°
2026-05-08 02:22 33.55336 -99.84168 34011 ft 378 kts 278°
2026-05-08 02:22 33.56974 -99.90109 34030 ft 377 kts 278°
2026-05-08 02:23 33.58625 -99.96117 34020 ft 377 kts 278°
2026-05-08 02:23 33.60270 -100.02084 34003 ft 376 kts 278°
2026-05-08 02:24 33.61908 -100.08046 34001 ft 376 kts 278°
2026-05-08 02:24 33.63542 -100.14003 33993 ft 376 kts 278°
2026-05-08 02:25 33.65173 -100.19961 33990 ft 376 kts 278°
2026-05-08 02:25 33.66889 -100.25900 33991 ft 379 kts 281°
2026-05-08 02:26 33.68879 -100.31794 33987 ft 382 kts 282°
2026-05-08 02:26 33.70916 -100.37682 33984 ft 381 kts 282°
2026-05-08 02:27 33.72904 -100.43583 33984 ft 381 kts 281°
2026-05-08 02:27 33.74868 -100.49501 33985 ft 381 kts 281°
2026-05-08 02:28 33.76819 -100.55432 34015 ft 381 kts 281°